This demonstration page uses our WeatherBlox Daily Observations layout. Learn more.

36.17497, -115.13722

Hourly Observations for August 26, 2018

Temp ( °F °C ) Dew Point ( °F °C ) Humidity (%) Winds ( mph kmh ) Pressure ( in mb ) Visibility ( mi km ) Precip ( " mm )
12:53 am 00:53 Clear 88 31.1 46 7.8 23 23 SSW 8 13 29.83 1010 10 16.0934 0 0
1:53 am 01:53 Clear 88 31.1 53 11.7 30 30 S 7 11 29.83 1010 10 16.0934 0 0
2:53 am 02:53 Clear 85 29.4 49 9.4 29 29 ESE 3 6 29.83 1010 10 16.0934 0 0
3:53 am 03:53 Clear 84 28.9 50 10 31 31 SE 6 9 29.83 1010 10 16.0934 0 0
4:53 am 04:53 Clear 84 28.9 46 7.8 27 27 S 6 9 29.83 1010 10 16.0934 0 0
5:53 am 05:53 Clear 82 27.8 44 6.7 26 26 ESE 8 13 29.84 1011 10 16.0934 0 0
6:53 am 06:53 Sunny 84 28.9 43 6.1 24 24 SSE 10 17 29.86 1011 10 16.0934 0 0
7:53 am 07:53 Sunny 86 30 44 6.7 23 23 E 6 9 29.88 1012 10 16.0934 0 0
8:53 am 08:53 Sunny 89 31.7 38 3.3 16 16 ESE 7 11 29.88 1012 10 16.0934 0 0
9:53 am 09:53 Sunny 93 33.9 37 2.8 14 14 S 12 19 29.88 1012 10 16.0934 0 0
10:53 am 10:53 Sunny 97 36.1 31 -0.6 10 10 SSW 12 19 29.87 1012 10 16.0934 0 0
11:53 am 11:53 Sunny 99 37.2 41 5 14 14 S 17 28 29.85 1011 10 16.0934 0 0
12:53 pm 12:53 Sunny 99 37.2 38 3.3 12 12 SSW 16 26 29.83 1010 10 16.0934 0 0
1:53 pm 13:53 Sunny 101 38.3 37 2.8 11 11 SSW 14 22 29.81 1009 10 16.0934 0 0
2:53 pm 14:53 Sunny 101 38.3 38 3.3 11 11 S 20 31 29.77 1008 10 16.0934 0 0
3:53 pm 15:53 Sunny 103 39.4 34 1.1 9 9 SW 18 30 29.75 1007 10 16.0934 0 0
4:53 pm 16:53 Sunny 102 38.9 32 0 9 9 SW 16 26 29.73 1007 10 16.0934 0 0
5:53 pm 17:53 Sunny 100 37.8 28 -2.2 8 8 SW 15 24 29.72 1006 10 16.0934 0 0
6:53 pm 18:53 Sunny 98 36.7 25 -3.9 7 7 SW 17 28 29.71 1006 10 16.0934 0 0
7:53 pm 19:53 Clear 96 35.6 19 -7.2 6 6 WSW 16 26 29.72 1006 10 16.0934 0 0
8:53 pm 20:53 Clear 95 35 17 -8.3 6 6 SW 12 19 29.73 1007 10 16.0934 0 0
9:53 pm 21:53 Clear 92 33.3 19 -7.2 7 7 SSW 13 20 29.74 1007 10 16.0934 0 0
10:53 pm 22:53 Clear 90 32.2 20 -6.7 8 8 SSW 8 13 29.74 1007 10 16.0934 0 0
11:53 pm 23:53 Clear 91 32.8 26 -3.3 9 9 SW 13 20 29.74 1007 10 16.0934 0 0

Powered by AerisWeather